Vorticity
3 3 2 2 7 5 15 12 32 27 28 16 15 -12 25 22 5 -9 3 8 6 6 9 9 14 17 14 14 15 14 14 11 14 16 13 11 10 10 12 12 12 13 14 12 9 4 4
1 3 1 4 2 5 5 5 16 12 29 28 3 -2 26 17 18 20 18 15 13 15 15 10 8 8 12 13 12 6 -1 3 13 16 19 22 15 10 13 14 16 17 16 11 11 16 13
1 1 4 1 3 1 3 4 4 5 12 15 21 20 13 10 9 10 12 14 14 14 13 12 11 13 6 5 3 6 3 1 5 19 15 16 15 19 23 19 14 10 9 11 17 14 8
0 1 1 4 3 2 2 3 4 3 4 5 5 5 5 4 4 5 4 4 0 0 1 2 3 5 5 5 3 1 3 1 -1 10 27 25 15 12 25 24 21 15 16 11 10 8 12
1 -0 0 1 3 4 2 1 2 4 5 4 5 5 5 5 5 5 5 3 2 2 2 3 3 3 2 1 1 3 0 2 4 -3 21 29 11 15 9 15 14 14 16 22 16 21 14
3 1 -0 1 -1 3 3 6 4 1 1 3 4 5 4 4 2 2 3 3 4 3 2 2 2 0 1 2 1 1 2 0 1 2 14 25 23 26 21 13 13 15 25 26 23 15 19
12 7 1 -0 0 0 2 3 4 6 4 3 1 1 1 2 2 3 2 1 2 3 1 3 2 1 0 1 2 1 1 2 0 3 4 24 25 29 29 25 19 22 41 32 23 20 17
6 9 15 6 1 1 -0 0 1 3 4 5 6 5 4 3 3 2 2 3 3 4 4 4 3 3 3 2 1 2 3 3 1 1 3 10 17 17 22 24 23 34 33 29 29 18 17
12 10 7 10 13 7 4 1 0 0 1 3 4 5 5 5 4 5 4 5 5 6 6 5 5 6 6 6 5 4 3 2 4 1 3 8 15 17 15 20 23 29 35 30 33 26 28
8 4 16 13 7 7 13 10 7 2 1 0 0 1 2 2 4 7 4 5 5 7 8 5 6 6 6 7 10 11 8 5 2 5 3 1 8 21 18 14 20 24 33 31 27 30 34
11 5 10 6 17 12 7 10 9 10 11 4 2 2 1 1 0 1 2 3 4 6 3 2 4 3 3 4 3 5 8 6 7 3 4 3 -0 4 14 18 12 16 12 16 20 20 27
1 4 -2 -2 -5 5 17 8 10 10 9 11 14 8 6 6 6 5 4 5 8 4 6 3 3 2 4 5 6 5 6 7 8 5 2 4 5 2 2 6 15 13 16 17 10 12 11
4 3 7 1 -4 -4 10 7 17 7 14 7 9 10 11 10 11 11 11 10 11 9 7 9 9 8 8 7 6 7 6 6 7 10 6 4 3 4 5 1 3 9 13 13 10 12 12
5 -4 2 2 16 -3 -4 9 11 15 12 9 12 7 8 8 8 7 9 8 8 9 8 10 10 11 10 11 8 8 6 7 7 6 8 7 4 3 2 4 5 7 1 3 11 19 20
2 4 4 5 1 7 -3 5 4 4 13 17 0 9 7 6 4 5 4 5 7 5 6 7 7 7 7 6 8 11 7 7 8 8 5 7 6 6 3 3 4 3 1 3 7 9 7
1 2 3 5 4 5 -1 6 3 2 10 9 14 6 6 12 7 6 6 3 5 5 4 4 5 5 6 6 8 11 9 8 7 8 8 6 7 6 6 5 3 6 2 1 -1 -0 11
0 1 1 0 1 2 4 -4 6 2 1 12 9 7 10 7 7 9 6 8 6 6 6 6 6 6 7 6 4 6 7 8 8 7 10 10 6 5 6 7 8 3 3 5 3 1 0
0 -0 1 2 -0 0 0 4 4 -3 0 7 10 8 6 8 13 6 10 5 13 7 7 7 10 8 9 7 7 5 6 6 6 5 6 8 13 8 6 7 5 8 6 6 4 5 4
4 -1 2 4 5 3 5 8 6 5 1 5 17 3 9 11 10 6 7 6 6 12 5 10 3 9 8 9 11 5 7 7 7 6 4 2 4 13 14 10 7 5 6 6 9 7 2
7 -5 -0 -0 0 2 3 2 3 7 6 8 -5 22 -3 5 13 5 8 11 6 4 6 5 3 8 3 2 8 5 11 10 6 5 5 7 5 4 3 10 11 6 6 8 8 8 9
2 -3 -3 3 1 5 6 5 3 6 9 3 1 2 1 -4 1 10 10 7 12 8 6 5 6 6 8 5 6 5 7 -2 8 6 7 7 9 10 4 7 5 8 9 11 11 8 9
2 4 2 4 4 2 5 3 4 5 7 4 -0 3 11 -2 11 5 9 5 6 8 8 5 5 8 6 3 8 7 9 3 4 14 6 7 6 16 7 8 9 2 1 5 5 8 11
4 2 2 4 2 6 4 3 6 3 3 3 11 1 3 9 10 5 9 4 3 2 6 6 5 4 1 6 4 5 6 6 5 9 -2 8 -8 8 11 11 10 8 5 4 3 7 1
4 5 3 1 2 7 5 4 7 5 3 6 7 3 0 11 10 9 7 8 2 3 1 8 4 7 8 3 3 -2 9 4 4 2 3 11 -3 1 10 12 15 12 4 6 4 3 9
3 1 1 3 4 2 1 3 8 3 3 6 7 5 2 5 6 13 6 1 8 11 7 3 3 4 5 6 4 6 1 4 2 5 10 -4 10 -1 3 6 11 11 4 7 8 9 3
0 4 3 3 3 4 6 8 3 10 8 6 11 11 3 2 16 5 12 1 11 7 6 2 2 5 7 6 2 6 -1 3 0 3 4 8 1 9 6 4 3 11 6 2 2 7 7
4 4 5 6 6 3 5 4 9 7 6 5 5 15 10 8 12 9 7 9 6 4 6 -0 5 5 2 2 2 2 6 5 4 2 4 5 5 3 3 1 7 5 2 2 1 10 7
8 9 10 7 9 9 10 7 5 1 2 3 7 5 4 7 11 15 11 7 6 5 7 13 4 0 4 3 4 4 4 1 1 -0 0 3 7 8 2 4 16 16 20 3 8 6 7
7 4 4 8 2 -3 1 22 15 10 17 10 14 11 16 6 1 8 18 6 7 7 6 17 6 0 3 1 3 4 3 3 1 2 -2 1 0 3 3 0 12 9 10 12 -5 4 8
Height
5806 5795 5784 5771 5758 5745 5731 5719 5706 5694 5686 5683 5680 5680 5680 5679 5684 5690 5694 5701 5710 5719 5727 5738 5746 5751 5754 5760 5764 5766 5769 5769 5768 5765 5761 5757 5752 5747 5743 5739 5735 5732 5732 5732 5732 5733 5735
5814 5805 5795 5785 5773 5762 5751 5739 5730 5720 5710 5705 5703 5704 5704 5703 5705 5706 5709 5713 5723 5729 5738 5747 5750 5754 5759 5765 5768 5768 5767 5765 5762 5758 5753 5747 5741 5735 5729 5724 5722 5720 5718 5717 5717 5719 5719
5821 5814 5806 5797 5788 5778 5769 5759 5751 5743 5736 5729 5723 5722 5720 5721 5723 5727 5731 5735 5738 5744 5749 5753 5755 5759 5765 5770 5768 5765 5763 5761 5757 5749 5740 5733 5728 5721 5717 5712 5709 5706 5705 5704 5704 5704 5703
5828 5822 5815 5809 5801 5793 5784 5777 5770 5763 5756 5751 5748 5745 5743 5741 5739 5739 5742 5746 5749 5753 5757 5762 5764 5767 5769 5768 5766 5761 5760 5757 5755 5748 5738 5728 5719 5710 5705 5700 5695 5692 5690 5689 5689 5689 5688
5833 5828 5822 5817 5811 5804 5798 5791 5784 5779 5775 5770 5766 5763 5761 5760 5759 5758 5757 5758 5759 5762 5764 5767 5768 5767 5765 5766 5765 5763 5760 5759 5755 5750 5741 5730 5717 5703 5695 5690 5686 5679 5674 5671 5674 5672 5673
5837 5833 5828 5823 5818 5813 5808 5802 5797 5792 5787 5783 5779 5776 5774 5772 5771 5771 5770 5770 5770 5771 5771 5772 5771 5772 5771 5769 5766 5764 5763 5760 5756 5748 5738 5725 5711 5699 5689 5680 5673 5666 5659 5655 5656 5659 5656
5840 5836 5833 5829 5825 5820 5815 5811 5806 5801 5797 5794 5790 5787 5784 5782 5780 5779 5778 5777 5778 5778 5776 5776 5775 5774 5773 5771 5769 5766 5762 5759 5754 5747 5737 5722 5710 5696 5684 5674 5664 5653 5644 5641 5643 5645 5639
5842 5839 5835 5832 5829 5825 5821 5818 5814 5810 5806 5802 5799 5796 5793 5791 5788 5787 5786 5784 5782 5783 5782 5780 5778 5777 5775 5772 5769 5767 5763 5759 5752 5744 5734 5720 5704 5690 5678 5667 5655 5643 5635 5633 5636 5635 5635
5846 5842 5839 5835 5831 5828 5825 5822 5819 5816 5813 5810 5806 5803 5801 5798 5796 5794 5791 5789 5788 5787 5786 5784 5782 5780 5777 5774 5771 5766 5762 5756 5750 5742 5732 5719 5704 5688 5677 5667 5655 5644 5636 5632 5631 5631 5634
5848 5845 5841 5838 5835 5831 5828 5825 5822 5819 5816 5814 5811 5809 5806 5803 5802 5799 5796 5794 5791 5790 5788 5787 5783 5780 5777 5773 5769 5764 5759 5755 5748 5741 5731 5721 5708 5694 5680 5669 5661 5651 5642 5635 5632 5632 5633
5850 5846 5843 5841 5838 5835 5831 5828 5824 5821 5818 5816 5813 5811 5809 5806 5804 5802 5800 5797 5794 5791 5789 5786 5781 5778 5775 5772 5768 5763 5757 5751 5747 5740 5733 5724 5712 5701 5688 5677 5667 5660 5652 5648 5643 5639 5640
5852 5848 5845 5841 5839 5836 5833 5830 5827 5824 5820 5817 5814 5812 5809 5807 5804 5802 5799 5796 5794 5792 5788 5784 5780 5777 5773 5768 5765 5759 5755 5750 5744 5737 5732 5724 5716 5707 5697 5687 5677 5667 5662 5659 5656 5654 5654
5853 5849 5846 5842 5838 5835 5833 5830 5828 5826 5822 5819 5816 5813 5810 5806 5804 5801 5798 5796 5793 5789 5787 5783 5779 5774 5771 5767 5762 5758 5754 5749 5743 5738 5731 5725 5718 5710 5703 5696 5688 5679 5672 5667 5665 5662 5662
5852 5849 5846 5843 5840 5835 5831 5827 5826 5824 5822 5820 5817 5814 5810 5807 5804 5801 5798 5796 5792 5788 5784 5781 5776 5773 5769 5765 5760 5756 5752 5747 5741 5737 5731 5725 5720 5713 5707 5702 5696 5689 5683 5676 5672 5669 5668
5850 5848 5845 5842 5839 5835 5831 5827 5824 5821 5819 5818 5816 5813 5810 5807 5804 5801 5798 5794 5792 5788 5784 5779 5776 5772 5768 5763 5759 5754 5750 5745 5740 5735 5731 5725 5720 5715 5709 5704 5700 5694 5689 5685 5680 5676 5672
5846 5844 5842 5839 5837 5834 5830 5826 5822 5819 5816 5813 5812 5810 5808 5805 5802 5799 5796 5793 5790 5787 5783 5780 5776 5771 5767 5762 5758 5754 5749 5745 5739 5734 5730 5725 5721 5716 5711 5706 5702 5697 5694 5689 5684 5680 5675
5839 5838 5837 5835 5832 5830 5828 5824 5821 5817 5813 5810 5808 5806 5804 5802 5799 5797 5794 5791 5788 5785 5782 5778 5773 5770 5767 5763 5758 5754 5750 5745 5739 5734 5729 5724 5720 5717 5711 5706 5702 5699 5695 5691 5687 5683 5678
5833 5831 5830 5829 5827 5825 5823 5820 5817 5813 5810 5808 5804 5802 5800 5797 5796 5793 5790 5787 5784 5781 5779 5775 5771 5767 5764 5760 5757 5752 5748 5744 5740 5735 5729 5725 5720 5715 5710 5706 5701 5698 5695 5692 5688 5686 5681
5827 5825 5822 5821 5821 5819 5817 5815 5813 5809 5806 5804 5800 5797 5795 5792 5790 5788 5786 5783 5781 5777 5774 5772 5768 5765 5761 5757 5754 5750 5746 5742 5738 5734 5730 5725 5720 5715 5711 5707 5701 5697 5695 5691 5688 5685 5682
5815 5816 5815 5813 5812 5812 5810 5808 5806 5804 5801 5799 5796 5793 5791 5787 5784 5782 5780 5777 5775 5772 5769 5765 5763 5761 5758 5754 5750 5746 5743 5739 5734 5730 5727 5724 5719 5715 5710 5706 5701 5696 5693 5690 5687 5685 5683
5806 5806 5807 5805 5803 5803 5802 5800 5797 5796 5794 5792 5789 5788 5784 5781 5779 5775 5774 5770 5769 5767 5764 5760 5757 5754 5752 5749 5747 5743 5739 5737 5733 5729 5724 5721 5719 5715 5710 5706 5701 5696 5692 5688 5686 5683 5681
5793 5794 5795 5795 5794 5792 5791 5791 5789 5786 5784 5783 5781 5778 5777 5775 5772 5768 5764 5763 5760 5758 5757 5754 5749 5747 5744 5742 5739 5735 5734 5730 5729 5725 5722 5719 5715 5711 5709 5705 5700 5695 5691 5688 5684 5680 5679
5779 5780 5780 5782 5783 5782 5780 5779 5778 5776 5774 5772 5771 5768 5765 5763 5760 5760 5758 5753 5751 5748 5748 5744 5742 5738 5735 5734 5731 5728 5726 5723 5720 5718 5715 5712 5709 5707 5705 5701 5698 5694 5689 5685 5682 5678 5675
5765 5765 5766 5766 5767 5769 5769 5767 5766 5765 5763 5761 5758 5755 5754 5754 5752 5748 5747 5744 5741 5738 5736 5735 5733 5729 5727 5724 5722 5720 5718 5715 5712 5709 5706 5704 5700 5698 5698 5695 5693 5689 5685 5681 5678 5673 5671
5752 5751 5751 5750 5750 5751 5753 5754 5753 5751 5750 5749 5746 5742 5738 5737 5740 5741 5736 5733 5730 5728 5726 5723 5720 5717 5713 5712 5710 5708 5707 5705 5703 5700 5698 5696 5693 5689 5688 5686 5687 5683 5678 5675 5673 5669 5666
5734 5735 5735 5735 5734 5733 5734 5735 5735 5736 5735 5733 5732 5730 5726 5723 5724 5727 5723 5721 5718 5716 5714 5713 5711 5707 5703 5700 5698 5694 5693 5692 5689 5687 5687 5685 5684 5682 5680 5676 5676 5676 5672 5667 5664 5663 5659
5715 5715 5716 5717 5717 5717 5717 5716 5716 5717 5717 5716 5715 5713 5712 5710 5709 5708 5705 5706 5706 5703 5699 5698 5696 5692 5690 5689 5686 5685 5684 5680 5678 5675 5675 5673 5672 5672 5669 5664 5667 5666 5662 5658 5655 5654 5648
5694 5696 5697 5698 5699 5699 5698 5698 5698 5697 5698 5696 5696 5695 5693 5692 5693 5693 5693 5690 5687 5688 5688 5685 5681 5678 5676 5673 5670 5669 5666 5666 5664 5664 5662 5661 5659 5660 5657 5655 5657 5655 5651 5649 5645 5639 5637
5675 5676 5676 5677 5678 5679 5679 5678 5678 5678 5676 5678 5676 5675 5674 5674 5677 5677 5677 5675 5674 5671 5668 5666 5666 5660 5657 5654 5653 5648 5651 5648 5647 5647 5647 5645 5644 5644 5645 5643 5646 5641 5639 5635 5631 5628 5626